Tiempo cada hora Allende

Hoy, 28 Julio, Miércoles

Tiempo Temperatura Precipitaciones Viento Presión Humedad
00:00 +26°C° 0 mm 1 mps 723 mmHg 67%
01:00 +26°C° 0 mm 1 mps 723 mmHg 69%
02:00 +25°C° 0 mm 1 mps 723 mmHg 72%
03:00 +25°C° 0 mm 1 mps 723 mmHg 72%
04:00 +25°C° 0 mm 1 mps 723 mmHg 72%
05:00 +25°C° 0 mm 1 mps 723 mmHg 72%
06:00 +27°C° 0 mm 1 mps 723 mmHg 67%
07:00 +28°C° 0 mm 1 mps 724 mmHg 63%
08:00 +30°C° 0 mm 1 mps 724 mmHg 58%
09:00 +31°C° 0.3 mm 2 mps 724 mmHg 56%
10:00 +32°C° 0.3 mm 2 mps 724 mmHg 54%
11:00 +34°C° 0.3 mm 2 mps 724 mmHg 51%
12:00 +34°C° 0.4 mm 2 mps 723 mmHg 51%
13:00 +34°C° 0.4 mm 2 mps 723 mmHg 50%
14:00 +34°C° 0.4 mm 2 mps 722 mmHg 49%
15:00 +33°C° 0.8 mm 3 mps 722 mmHg 54%
16:00 +32°C° 0.8 mm 4 mps 722 mmHg 60%
17:00 +29°C° 0.8 mm 4 mps 722 mmHg 65%
18:00 +28°C° 1.2 mm 3 mps 722 mmHg 68%
19:00 +27°C° 1.2 mm 3 mps 722 mmHg 71%
20:00 +27°C° 1.2 mm 2 mps 722 mmHg 74%
21:00 +26°C° 0.1 mm 2 mps 722 mmHg 74%
22:00 +26°C° 0.1 mm 2 mps 723 mmHg 73%
23:00 +25°C° 0.1 mm 1 mps 723 mmHg 72%

Mañana, 29 Julio, Jueves

Tiempo Temperatura Precipitaciones Viento Presión Humedad
00:00 +25°C° 0.1 mm 1 mps 723 mmHg 72%
01:00 +25°C° 0.1 mm 1 mps 722 mmHg 73%
02:00 +25°C° 0.1 mm 1 mps 722 mmHg 74%
03:00 +24°C° 0 mm 1 mps 722 mmHg 75%
04:00 +24°C° 0 mm 1 mps 723 mmHg 76%
05:00 +24°C° 0 mm 1 mps 723 mmHg 77%
06:00 +26°C° 0 mm 1 mps 723 mmHg 72%
07:00 +27°C° 0 mm 1 mps 724 mmHg 67%
08:00 +29°C° 0 mm 1 mps 724 mmHg 62%
09:00 +30°C° 0 mm 1 mps 724 mmHg 58%
10:00 +32°C° 0 mm 2 mps 724 mmHg 54%
11:00 +34°C° 0 mm 2 mps 724 mmHg 50%
12:00 +34°C° 0 mm 3 mps 724 mmHg 49%
13:00 +34°C° 0 mm 3 mps 723 mmHg 49%
14:00 +34°C° 0 mm 3 mps 723 mmHg 49%
15:00 +34°C° 0 mm 3 mps 723 mmHg 50%
16:00 +34°C° 0 mm 3 mps 723 mmHg 52%
17:00 +34°C° 0 mm 3 mps 722 mmHg 53%
18:00 +31°C° 0 mm 3 mps 723 mmHg 57%
19:00 +30°C° 0 mm 2 mps 723 mmHg 62%
20:00 +29°C° 0 mm 2 mps 723 mmHg 67%
21:00 +28°C° 0 mm 2 mps 723 mmHg 69%
22:00 +28°C° 0 mm 2 mps 723 mmHg 72%
23:00 +27°C° 0 mm 2 mps 724 mmHg 74%

Pasado mañana, 30 Julio, Viernes

Tiempo Temperatura Precipitaciones Viento Presión Humedad
00:00 +27°C° 0 mm 2 mps 723 mmHg 75%
01:00 +26°C° 0 mm 2 mps 723 mmHg 76%
02:00 +26°C° 0 mm 2 mps 723 mmHg 76%
03:00 +26°C° 0 mm 1 mps 723 mmHg 77%
04:00 +25°C° 0 mm 1 mps 723 mmHg 77%
05:00 +25°C° 0 mm 1 mps 723 mmHg 77%
06:00 +27°C° 0 mm 1 mps 724 mmHg 72%
07:00 +28°C° 0 mm 1 mps 724 mmHg 67%
08:00 +30°C° 0 mm 1 mps 725 mmHg 62%
09:00 +31°C° 0 mm 2 mps 725 mmHg 57%
10:00 +34°C° 0 mm 2 mps 725 mmHg 53%
11:00 +35°C° 0 mm 3 mps 725 mmHg 48%
12:00 +36°C° 0 mm 3 mps 724 mmHg 45%
13:00 +36°C° 0 mm 3 mps 724 mmHg 42%
14:00 +37°C° 0 mm 4 mps 724 mmHg 38%
15:00 +37°C° 0 mm 4 mps 724 mmHg 40%
16:00 +36°C° 0 mm 4 mps 723 mmHg 42%
17:00 +35°C° 0 mm 4 mps 723 mmHg 44%
18:00 +34°C° 0 mm 4 mps 724 mmHg 49%
19:00 +32°C° 0 mm 4 mps 724 mmHg 55%
20:00 +30°C° 0 mm 4 mps 724 mmHg 61%
21:00 +29°C° 0 mm 3 mps 724 mmHg 64%
22:00 +28°C° 0 mm 3 mps 724 mmHg 67%
23:00 +27°C° 0 mm 3 mps 724 mmHg 70%

31 Julio, Sábado

Tiempo Temperatura Precipitaciones Viento Presión Humedad
00:00 +27°C° 0 mm 3 mps 724 mmHg 71%
01:00 +27°C° 0 mm 2 mps 723 mmHg 71%
02:00 +26°C° 0 mm 2 mps 723 mmHg 72%
03:00 +26°C° 0 mm 2 mps 723 mmHg 72%
04:00 +26°C° 0 mm 2 mps 724 mmHg 73%
05:00 +25°C° 0 mm 1 mps 724 mmHg 73%
06:00 +27°C° 0 mm 1 mps 724 mmHg 68%
07:00 +29°C° 0 mm 1 mps 725 mmHg 63%
08:00 +30°C° 0 mm 1 mps 725 mmHg 59%
09:00 +32°C° 0 mm 2 mps 725 mmHg 54%
10:00 +34°C° 0 mm 3 mps 725 mmHg 50%
11:00 +36°C° 0 mm 3 mps 725 mmHg 46%
12:00 +37°C° 0.1 mm 4 mps 724 mmHg 43%
13:00 +37°C° 0.1 mm 4 mps 724 mmHg 41%
14:00 +38°C° 0.1 mm 4 mps 723 mmHg 38%
15:00 +37°C° 0 mm 4 mps 723 mmHg 39%
16:00 +37°C° 0 mm 5 mps 723 mmHg 40%
17:00 +36°C° 0 mm 5 mps 723 mmHg 41%
18:00 +34°C° 0 mm 4 mps 723 mmHg 47%
19:00 +33°C° 0 mm 4 mps 723 mmHg 53%
20:00 +30°C° 0 mm 4 mps 723 mmHg 59%
21:00 +29°C° 0 mm 4 mps 723 mmHg 62%
22:00 +28°C° 0 mm 3 mps 723 mmHg 65%
23:00 +28°C° 0 mm 3 mps 723 mmHg 68%

1 Agosto, Domingo

Tiempo Temperatura Precipitaciones Viento Presión Humedad
00:00 +27°C° 0 mm 3 mps 723 mmHg 70%
01:00 +27°C° 0 mm 3 mps 723 mmHg 71%
02:00 +26°C° 0 mm 2 mps 723 mmHg 72%
03:00 +26°C° 0 mm 2 mps 723 mmHg 73%
04:00 +26°C° 0 mm 2 mps 723 mmHg 74%
05:00 +25°C° 0 mm 1 mps 723 mmHg 75%
06:00 +27°C° 0 mm 1 mps 723 mmHg 70%
07:00 +29°C° 0 mm 2 mps 724 mmHg 64%
08:00 +31°C° 0 mm 2 mps 724 mmHg 58%
09:00 +32°C° 0 mm 2 mps 724 mmHg 54%
10:00 +35°C° 0 mm 3 mps 724 mmHg 49%
11:00 +36°C° 0 mm 3 mps 724 mmHg 45%
12:00 +37°C° 0.2 mm 3 mps 723 mmHg 42%
13:00 +38°C° 0.2 mm 4 mps 723 mmHg 40%
14:00 +38°C° 0.2 mm 4 mps 722 mmHg 37%
15:00 +38°C° 0.3 mm 4 mps 722 mmHg 38%
16:00 +37°C° 0.3 mm 4 mps 722 mmHg 40%
17:00 +37°C° 0.3 mm 4 mps 722 mmHg 41%
18:00 +35°C° 0.1 mm 4 mps 722 mmHg 47%
19:00 +33°C° 0.1 mm 4 mps 722 mmHg 53%
20:00 +30°C° 0.1 mm 4 mps 722 mmHg 59%
21:00 +29°C° 0 mm 3 mps 722 mmHg 61%
22:00 +29°C° 0 mm 3 mps 722 mmHg 63%
23:00 +28°C° 0 mm 3 mps 722 mmHg 64%

2 Agosto, Lunes

Tiempo Temperatura Precipitaciones Viento Presión Humedad
00:00 +27°C° 0 mm 3 mps 722 mmHg 65%
01:00 +27°C° 0 mm 2 mps 722 mmHg 67%
02:00 +26°C° 0 mm 2 mps 722 mmHg 68%
03:00 +26°C° 0 mm 2 mps 722 mmHg 69%
04:00 +26°C° 0 mm 2 mps 722 mmHg 70%
05:00 +26°C° 0 mm 1 mps 722 mmHg 71%
06:00 +27°C° 0 mm 1 mps 723 mmHg 66%
07:00 +29°C° 0 mm 1 mps 723 mmHg 61%
08:00 +31°C° 0 mm 1 mps 723 mmHg 55%
09:00 +34°C° 0 mm 2 mps 723 mmHg 52%
10:00 +35°C° 0 mm 2 mps 723 mmHg 48%
11:00 +36°C° 0 mm 3 mps 723 mmHg 44%
12:00 +37°C° 0.2 mm 3 mps 722 mmHg 40%
13:00 +38°C° 0.2 mm 3 mps 721 mmHg 37%
14:00 +39°C° 0.2 mm 3 mps 721 mmHg 33%
15:00 +38°C° 0.2 mm 3 mps 721 mmHg 34%
16:00 +38°C° 0.2 mm 3 mps 720 mmHg 36%
17:00 +37°C° 0.2 mm 4 mps 720 mmHg 37%
18:00 +35°C° 0 mm 4 mps 721 mmHg 43%
19:00 +34°C° 0 mm 4 mps 721 mmHg 50%
20:00 +32°C° 0 mm 4 mps 721 mmHg 56%
21:00 +30°C° 0 mm 3 mps 721 mmHg 60%
22:00 +29°C° 0 mm 3 mps 722 mmHg 64%
23:00 +28°C° 0 mm 3 mps 722 mmHg 68%
Mostrar más

Necesitamos Su Consentimiento

Meteoprog y nuestros Proveedores de Servicios pueden almacenar y acceder a sus datos personales como cookies, identificadores de dispositivo u otras tecnologías similares de su dispositivo y procesar dichos datos para personalizar contenido y anuncios, además de ofrecer funciones de redes sociales y analizar el tráfico.

  • Almacenar y/o acceder a información en su dispositivo

    Se puede almacenar o acceder a cookies, identificadores de dispositivo u otra información de su dispositivo para los fines anteriormente indicados.

  • Anuncios y contenido personalizados, medición de anuncios y contenido, percepciones del público, y desarrollo de productos

    Los anuncios y el contenido pueden personalizarse en base a su perfil. Se pueden añadir más datos para personalizar mejor los anuncios y contenidos. Se puede medir el rendimiento de los anuncios y contenidos. Se puede obtener la percepción sobre el público que ha visto los anuncios y contenidos. Dichos datos pueden usarse para desarrollar o mejorar la experiencia del usuario, sistemas y software.

Al hacer clic en ‘Estoy De Acuerdo’ usted permitirá el uso de las cookies, identificadores de dispositivo, balizas web u otras tecnologías similares indicadas. Su configuración puede cambiarse desde el navegador de su dispositivo.

Para ciertos fines, los intereses legítimos pueden ser considerados por encima del consentimiento. Puede leer más sobre ello en nuestra Política de Privacidad y Cookies.